Weather History for Knox, IN

Change the Weather History Date:

Sunday, February 3, 2013

  Actual Average (KVPZ) Record (KVPZ)
Temperature  
Mean Temperature 16 °F 25 °F  
Max Temperature 22 °F 32 °F 48 °F (2003)
Min Temperature 9 °F 17 °F -5 °F (2011)
Degree Days  
Heating Degree Days 50 40  
Month to date heating degree days 122  
Since 1 July heating degree days 3807  
Cooling Degree Days 0 0  
Month to date cooling degree days 0  
Year to date cooling degree days 0  
Moisture  
Dew Point 11 °F    
Average Humidity 80    
Maximum Humidity 88    
Minimum Humidity 64    
Precipitation  
Precipitation 0.00 in 0.05 in 0.22 in (2003)
Month to date precipitation 0.13  
Year to date precipitation 1.88  
Sea Level Pressure  
Sea Level Pressure 29.99 in    
Wind  
Wind Speed 9 mph (West)    
Max Wind Speed 15 mph    
Max Gust Speed 18 mph    
Visibility 9 miles    
Events      
T = Trace of Precipitation, MM = Missing Value Source: NWS Daily Summary

Daily Weather History Graph

Daily Weather History Graph

Search for Another Location

Airport:

Trip Planner

Search our weather history database for the weather conditions in past years. The results will help you decide how hot, cold, wet, or windy it might be!

Date:

Astronomy

Feb. 03, 2013 Rise Set
Actual Time 6:55 AM CST 5:05 PM CST
Civil Twilight 6:26 AM CST 5:35 PM CST
Nautical Twilight 5:53 AM CST 6:07 PM CST
Astronomical Twilight 5:21 AM CST 6:40 PM CST
Moon 12:22 AM CST (2/3) 10:42 AM CST (2/3)
Length of Visible Light 11h 08m
Length of Day
10h 10m
Waning Gibbous, 48% of the Moon is Illuminated
Feb 3
Waning Gibbous
Feb 10
New
Feb 17
First Quarter
Feb 25
Full
Mar 4
Last Quarter

Hourly Weather History & Observations

Time (CST) Temp. Windchill Dew Point Humidity Pressure Visibility Wind Dir Wind Speed Gust Speed Precip Events Conditions
12:15 AM 14.2 °F 3.1 °F 10.2 °F 84% 30.01 in 7.0 mi West 8.1 mph - N/A   Overcast
12:35 AM 13.8 °F 6.2 °F 10.0 °F 85% 29.99 in 10.0 mi WSW 4.6 mph - N/A   Overcast
12:55 AM 13.3 °F 2.0 °F 9.5 °F 85% 30.00 in 7.0 mi West 8.1 mph - N/A   Overcast
1:15 AM 12.9 °F 2.6 °F 9.1 °F 85% 29.99 in 7.0 mi West 6.9 mph - N/A   Overcast
1:35 AM 12.2 °F -0.2 °F 8.4 °F 85% 29.99 in 10.0 mi West 9.2 mph - N/A   Overcast
1:55 AM 11.7 °F 0.0 °F 7.9 °F 85% 29.99 in 10.0 mi West 8.1 mph - N/A   Overcast
2:15 AM 11.3 °F -0.4 °F 7.3 °F 84% 29.99 in 10.0 mi WSW 8.1 mph - N/A   Overcast
2:35 AM 10.9 °F 1.4 °F 7.2 °F 85% 29.98 in 10.0 mi West 5.8 mph - N/A   Overcast
2:55 AM 10.9 °F 2.9 °F 7.0 °F 84% 29.97 in 10.0 mi WSW 4.6 mph - N/A   Overcast
3:15 AM 10.9 °F 2.9 °F 6.8 °F 83% 29.95 in 10.0 mi WSW 4.6 mph - N/A   Overcast
3:35 AM 11.1 °F 1.7 °F 6.6 °F 82% 29.95 in 10.0 mi WSW 5.8 mph - N/A   Overcast
3:55 AM 10.9 °F 0.2 °F 5.9 °F 80% 29.95 in 10.0 mi West 6.9 mph - N/A   Overcast
4:15 AM 10.4 °F -0.4 °F 5.2 °F 79% 29.94 in 10.0 mi West 6.9 mph - N/A   Overcast
4:35 AM 10.2 °F -0.6 °F 4.3 °F 77% 29.95 in 10.0 mi West 6.9 mph - N/A   Overcast
4:55 AM 9.7 °F -1.3 °F 4.3 °F 79% 29.95 in 10.0 mi West 6.9 mph - N/A   Overcast
5:15 AM 9.5 °F -1.5 °F 4.5 °F 80% 29.95 in 10.0 mi WSW 6.9 mph - N/A   Overcast
5:35 AM 9.5 °F -0.3 °F 4.3 °F 79% 29.94 in 10.0 mi West 5.8 mph - N/A   Overcast
5:55 AM 9.5 °F 1.2 °F 4.5 °F 80% 29.94 in 10.0 mi WSW 4.6 mph - N/A   Overcast
6:15 AM 9.5 °F -3.5 °F 4.8 °F 81% 29.95 in 10.0 mi WSW 9.2 mph - N/A   Overcast
6:35 AM 9.7 °F -2.4 °F 5.0 °F 81% 29.96 in 10.0 mi West 8.1 mph - N/A   Overcast
6:55 AM 10.0 °F -2.9 °F 5.5 °F 82% 29.96 in 10.0 mi West 9.2 mph - N/A   Overcast
7:15 AM 10.6 °F -2.2 °F 5.9 °F 81% 29.97 in 10.0 mi WSW 9.2 mph - N/A   Overcast
7:35 AM 10.9 °F 0.2 °F 6.4 °F 82% 29.97 in 7.0 mi WSW 6.9 mph - N/A   Overcast
8:15 AM 11.7 °F 1.1 °F 8.4 °F 87% 29.97 in 5.0 mi WSW 6.9 mph - N/A   Overcast
8:35 AM 12.0 °F 0.5 °F 8.8 °F 87% 29.97 in 5.0 mi WSW 8.1 mph - N/A   Overcast
8:55 AM 12.6 °F 0.2 °F 9.3 °F 87% 29.97 in 7.0 mi WSW 9.2 mph - N/A   Overcast
9:15 AM 13.1 °F 0.9 °F 9.7 °F 86% 29.95 in 7.0 mi WSW 9.2 mph - N/A   Overcast
9:35 AM 13.8 °F 0.2 °F 10.4 °F 86% 29.96 in 10.0 mi WSW 11.5 mph - N/A   Overcast
9:55 AM 14.5 °F 1.1 °F 11.1 °F 86% 29.97 in 0.8 mi West 11.5 mph - N/A   Overcast
10:15 AM 14.9 °F 2.3 °F 11.3 °F 86% 29.97 in 2.5 mi WSW 10.4 mph 16.1 mph N/A   Overcast
10:35 AM 15.3 °F 1.4 °F 12.0 °F 87% 29.97 in 2.5 mi West 12.7 mph - N/A   Overcast
10:55 AM 16.0 °F 2.9 °F 12.4 °F 86% 29.97 in 4.0 mi West 11.5 mph - N/A   Overcast
11:15 AM 16.7 °F 3.2 °F 12.7 °F 84% 29.96 in 7.0 mi West 12.7 mph - N/A   Overcast
11:35 AM 17.2 °F 4.5 °F 12.9 °F 83% 29.96 in 10.0 mi West 11.5 mph 16.1 mph N/A   Overcast
11:55 AM 17.6 °F 5.0 °F 13.1 °F 83% 29.96 in 10.0 mi West 11.5 mph - N/A   Overcast
12:15 PM 18.1 °F 4.4 °F 13.5 °F 82% 29.97 in 10.0 mi West 13.8 mph - N/A   Overcast
12:35 PM 18.7 °F 4.6 °F 13.8 °F 81% 29.97 in 10.0 mi West 15.0 mph - N/A   Mostly Cloudy
12:55 PM 19.6 °F 6.2 °F 14.5 °F 81% 29.97 in 5.0 mi West 13.8 mph 18.4 mph N/A   Overcast
1:15 PM 20.1 °F 7.5 °F 15.1 °F 81% 29.96 in 2.5 mi West 12.7 mph - N/A   Overcast
1:35 PM 20.8 °F 8.4 °F 15.1 °F 78% 29.97 in 7.0 mi West 12.7 mph - N/A   Overcast
2:15 PM 21.2 °F 8.3 °F 15.1 °F 77% 29.98 in 10.0 mi West 13.8 mph - N/A   Overcast
2:35 PM 21.9 °F 8.7 °F 14.9 °F 74% 29.99 in 7.0 mi WNW 15.0 mph - N/A   Overcast
2:55 PM 22.1 °F 10.0 °F 15.3 °F 75% 30.00 in 10.0 mi WNW 12.7 mph - N/A   Overcast
3:15 PM 22.5 °F 11.7 °F 13.8 °F 69% 30.00 in 10.0 mi WNW 10.4 mph - N/A   Mostly Cloudy
3:35 PM 22.1 °F 10.6 °F 12.2 °F 66% 30.00 in 10.0 mi NW 11.5 mph - N/A   Scattered Clouds
3:55 PM 22.1 °F 12.0 °F 11.7 °F 64% 30.01 in 10.0 mi West 9.2 mph - N/A   Clear
4:15 PM 21.9 °F 9.8 °F 13.3 °F 69% 30.02 in 10.0 mi West 12.7 mph - N/A   Clear
4:35 PM 20.7 °F 7.1 °F 13.5 °F 74% 30.01 in 10.0 mi West 15.0 mph - N/A   Clear
4:55 PM 19.8 °F 7.7 °F 13.1 °F 75% 30.01 in 10.0 mi West 11.5 mph - N/A   Clear
5:15 PM 19.0 °F 5.6 °F 12.7 °F 76% 30.01 in 10.0 mi West 13.8 mph - N/A   Clear
5:35 PM 18.5 °F 6.8 °F 12.0 °F 76% 30.02 in 10.0 mi West 10.4 mph - N/A   Clear
5:55 PM 18.0 °F 6.9 °F 11.8 °F 77% 30.02 in 10.0 mi West 9.2 mph - N/A   Clear
6:15 PM 17.4 °F 5.4 °F 11.7 °F 78% 30.03 in 10.0 mi West 10.4 mph - N/A   Clear
6:35 PM 18.3 °F 6.6 °F 12.7 °F 79% 30.03 in 10.0 mi West 10.4 mph - N/A   Mostly Cloudy
6:55 PM 18.7 °F 7.8 °F 13.1 °F 79% 30.02 in 10.0 mi West 9.2 mph - N/A   Mostly Cloudy
7:15 PM 18.1 °F 7.1 °F 12.9 °F 80% 30.03 in 10.0 mi West 9.2 mph - N/A   Scattered Clouds
7:35 PM 18.9 °F 7.2 °F 13.5 °F 79% 30.03 in 10.0 mi West 10.4 mph - N/A   Mostly Cloudy
7:55 PM 19.6 °F 8.9 °F 14.0 °F 79% 30.02 in 10.0 mi West 9.2 mph - N/A   Overcast
8:15 PM 19.9 °F 11.1 °F 14.2 °F 78% 30.03 in 10.0 mi West 6.9 mph - N/A   Overcast
8:35 PM 19.9 °F 11.1 °F 14.5 °F 80% 30.03 in 10.0 mi West 6.9 mph - N/A   Overcast
8:55 PM 20.1 °F 11.3 °F 14.9 °F 80% 30.03 in 10.0 mi West 6.9 mph - N/A   Overcast
9:15 PM 20.3 °F 12.5 °F 15.6 °F 82% 30.03 in 10.0 mi West 5.8 mph - N/A   Overcast
9:35 PM 20.7 °F 11.9 °F 15.4 °F 80% 30.04 in 10.0 mi West 6.9 mph - N/A   Overcast
9:55 PM 21.0 °F 10.6 °F 14.7 °F 77% 30.04 in 10.0 mi West 9.2 mph - N/A   Overcast
10:15 PM 20.8 °F 11.2 °F 14.5 °F 77% 30.05 in 10.0 mi West 8.1 mph - N/A   Overcast
10:35 PM 20.5 °F 10.0 °F 14.5 °F 78% 30.05 in 10.0 mi West 9.2 mph - N/A   Overcast
10:55 PM 20.7 °F 11.9 °F 15.3 °F 80% 30.04 in 5.0 mi West 6.9 mph - N/A   Overcast
11:15 PM 20.5 °F 14.0 °F 16.3 °F 84% 30.05 in 5.0 mi West 4.6 mph - N/A   Overcast
11:35 PM 20.3 °F 15.4 °F 17.2 °F 88% 30.04 in 4.0 mi West 3.5 mph - N/A   Overcast